sat.trackr.live / text

‹ back to catalog

RESURS-P 5

NORAD 62430 · 2024-250A

PAYLOAD ACTIVE UNKNOWN

§ Identity

Operator
Country
CIS
Launch date
2024-12-25
Launch site
TYMSC
Launch vehicle
Mass (kg)
RCS (m²)

External: N2YO · Heavens-Above · Gunter

§ Orbital elements

Epoch: 2026-09-22T20:40:40.537920Z

Period
93.96 min
Inclination
97.2773°
Eccentricity
0.0001281
Mean motion
15.32546220 rev/d
Perigee alt
467.3 km
Apogee alt
469.1 km
Semi-major
6,846.4 km
B*
6.7342e-5
RAAN
189.5424°
Arg perigee
126.3381°
Mean anomaly
233.7980°
Rev number
9,750

§ Raw data

RESURS-P 51 62430U 24250A   26265.86158030  .00002040  00000+0  67342-4 0  99912 62430  97.2773 189.5424 0001281 126.3381 233.7980 15.32546220 97504

JSON: /api/v1/satellites/62430 · /tle

For live sub-satellite position, see the globe view (requires WebGL).

§ Visibility from observer

Set your observer location to see the next 7 days of passes ≥ 10°. The values pass through the URL so the page stays shareable.

No JS? Fill the form by hand. The geolocation button needs JavaScript.